Terug naar catalogus

STARLINK-32775

ActiefCommunicatieVLEO
NORAD 62742·PAYLOAD·🇺🇸 United States

Gelanceerd Jan 21, 2025 vanaf Cape Canaveral Space Force Station

Loading…

Volgende Passages (komende 24 uur)

TLE

VersSource: CelesTrak SupGP

Epoch: Sep 15, 2026, 03:09 UTC

1 62742C 25014H   26258.13173611  .00017810  00000+0  64519-3 0  2581
2 62742  43.0007 164.4673 0001564 278.6868 336.5816 15.27564177    17

Volg STARLINK-32775 in realtime met AllMySat

Download on the App Store